Regional Weather Roundup
Issued by NWS

Home | Current Version | Previous Version | Text Only | Print | Product List | Glossary On
Versions: 1 2 3 4 5 6 7 8 9 10 11 12 13 14 15 16 17 18 19 20 21 22 23 24 25 26 27 28 29 30 31 32 33 34 35 36 37 38 39 40 41 42 43 44 45 46 47 48 49 50
000
ASPQ40 PGUM 030012
RWRPQ
WEATHER ROUNDUP FOR THE MARIANAS AND MICRONESIA
NATIONAL WEATHER SERVICE TIYAN GU
1000 AM CHST WED SEP 03 2014

GUZ001>004-030100-
MARIANA ISLANDS-

CITY           SKY/WX    TMP DP  RH WIND       PRES   REMARKS
GUAM AIRPORT   LGT RAIN  84  79  84 SW7       29.83S HX  96
ANDERSEN AFB   MOSUNNY   82  77  83 S8        29.83F HX  91
ROTA AIRPORT   MOSUNNY   81  75  83 S6        29.84F
TINIAN AP      MOSUNNY   84  79  84 SW8       29.82R HX  96
SAIPAN AP      SUNNY     88  79  74 SW7       29.84R HX 102

$$

PMZ161-030100-
REPUBLIC OF PALAU-

CITY           SKY/WX    TMP DP  RH WIND       PRES   REMARKS
KOROR AP       SHOWER    79  79 100 W12       29.87R
KOROR WSO      LGT RAIN  82  73  74 W12       29.86R

$$

PMZ171>174-030100-
FEDERATED STATES OF MICRONESIA-

CITY           SKY/WX    TMP DP  RH WIND       PRES   REMARKS
YAP AIRPORT    PTSUNNY   84  75  74 W14G25    29.81S HX  92
CHUUK AP       MOSUNNY   90  81  74 N9        29.81S HX 108
POHNPEI AP     CLOUDY    82  77  83 E5        29.81S HX  91
POHNPEI WSO    LGT RAIN  82  79  89 NE5       29.86R HX  93
KOSRAE AP      NOT AVBL

$$

PMZ181-030100-
REPUBLIC OF THE MARSHALL ISLANDS-

CITY           SKY/WX    TMP DP  RH WIND       PRES   REMARKS
KWAJALEIN AP   PTSUNNY   90  73  58 E13       29.81F HX  98
MAJURO AP      CLOUDY    88  77  70 E13       29.79F HX 100
MAJURO WSO     PTSUNNY   90  79  70 E13       29.78F HX 105

$$



USA.gov is the U.S. government's official web portal to all federal, state and local government web resources and services.